Starlink 32915

operational
NORAD ID: 63152 Int'l Des: 2025-043 Owner: SPXS Country: US Constellation: starlink
LEOCIRCULAR

关于 Starlink 32915

正在加载描述...

实时位置

正在加载3D地球...

即将过境

高度历史

Altitude vs Time

uPlot chart will show altitude changes over time

两行轨道根数

1 63152U 25043W 26035.47747060 .00032866 00000-0 11976-2 0 9993
2 63152 42.9971 210.6203 0001391 307.1323 52.9401 15.27605299 52204
Epoch: Feb 4, 2026 • Age: 12 hours

当前状态

高度 489.4 km
速度 7.62 km/s
星下点 -28.66°S, 39.61°E
发射日期 Mar 3, 2025
运行时间 0.9 years
类型 internet

技术详情

分类 Payload
质量 730.00 kg
干质量 700.00 kg
总质量 730.00 kg
长度 0.30 m
直径 4.10 m
跨度 29.00 m
形状 Box + pan
制造商 SPXS
平台类型 Starlink V2M
阶段状态 In Orbit
所有者/国家 SPXS/US

大型星座

Loading constellations...